User: anonymous   Login
Location: Karlovy Vary
(50.2170°N, 12.9000°E)
Time: 21:19:29
(UTC+01:00)
Language:

ISS - Orbit

View from above orbital plane
View from above orbital plane
View from above satellite
View from above satellite

Ground track
Ground track

The orbit data is extracted from the following two-line orbital elements,

1 25544U 98067A   17329.55985295  .00016717  00000-0  10270-3 0  9030
2 25544  51.6389 313.8586 0003945 152.6597 207.4763 15.54266996  6844
Epoch (UTC): 25 November 2017 13:26:11
Eccentricity: 0.0003945
inclination: 51.6389°
perigee height: 401 km
apogee height: 407 km
right ascension of ascending node: 313.8586°
argument of perigee: 152.6597°
revolutions per day: 15.54266996
mean anomaly at epoch: 207.4763°
orbit number at epoch: 684

The dashed part of the orbit path shows where the satellite is in the earth's shadow,  

DLR